Regional Weather Roundup
Issued by NWS

Home | Current Version | Previous Version | Text Only | Print | Product List | Glossary Off
Versions: 1 2 3 4 5 6 7 8 9 10 11 12 13 14 15 16 17 18 19 20 21 22 23 24 25 26 27 28 29 30 31 32 33 34 35 36 37 38 39 40 41 42 43 44 45 46 47 48 49 50

000
ASUS43 KMKX 041911
RWRWI

WISCONSIN REGIONAL WEATHER ROUNDUP
NATIONAL WEATHER SERVICE MILWAUKEE/SULLIVAN WI
200 PM CDT SAT JUL 04 2015

NOTE: "FAIR" INDICATES FEW OR NO CLOUDS BELOW 12,000 FEET WITH NO
SIGNIFICANT WEATHER AND/OR OBSTRUCTIONS TO VISIBILITY.

WIZ001-002-006>008-014>016-023>028-042000-
NORTHWEST WISCONSIN

CITY           SKY/WX    TMP DP  RH WIND       PRES   REMARKS
SUPERIOR ARPT  SUNNY     68  61  77 NE9       29.96S
ASHLAND        SUNNY     73  65  75 N10       29.97R
HAYWARD        SUNNY     80  55  42 S6        29.96S HX  80
SIREN          PTSUNNY   83  56  39 S7        29.94F HX  83
CUMBERLAND     MOSUNNY   79  59  50 S5        29.96S HX  80
RICE LAKE      MOSUNNY   81  60  48 SE6       29.97S HAZE    HX  81
CHETEK         NOT AVBL
LADYSMITH      SUNNY     81  59  47 CALM      29.98S HX  81
EAU CLAIRE     SUNNY     82  63  52 W5        29.94F HX  83
MENOMONIE      MOSUNNY   81  62  51 SE5       29.95F HAZE    HX  82
NEW RICHMOND   MOSUNNY   80  62  55 SE5       29.95S HAZE    HX  81
OSCEOLA        PTSUNNY   81  62  52 S5        29.97S HAZE    HX  82
$$

WIZ003>005-009-010-017-018-042000-
NORTH CENTRAL WISCONSIN

CITY           SKY/WX    TMP DP  RH WIND       PRES   REMARKS
MANITOWISH WTR MOSUNNY   77  56  48 CALM      29.99S
ARBOR VITAE    MOSUNNY   77  57  50 CALM      29.99S
WOODRUFF       MOSUNNY   77  57  50 CALM      29.99S
RHINELANDER    MOSUNNY   80  51  36 VRB5      29.99S HX  80
EAGLE RIVER    PTSUNNY   77  52  41 CALM      29.98S
LAND O LAKES   PTSUNNY   78  52  39 SE3       30.00S
PHILLIPS       PTSUNNY   78  57  47 CALM      29.97S
TOMAHAWK       MOSUNNY   78  54  43 CALM      29.99R
MEDFORD        MOSUNNY   79  57  47 S3        29.98S HX  80
MERRILL        MOSUNNY   80  57  44 S5        29.98S HX  80
$$

WIZ029-030-035-036-043>047-042000-
CENTRAL WISCONSIN

CITY           SKY/WX    TMP DP  RH WIND       PRES   REMARKS
WAUSAU         SUNNY     81  56  42 VRB3      29.96S HX  81
MOSINEE        MOSUNNY   81  61  50 VRB5      29.99S HX  81
MARSHFIELD     MOSUNNY   80  60  50 SW3       29.97F HAZE    HX  81
STEVENS POINT  MOSUNNY   77  61  56 CALM      29.98S
WAUPACA        PTSUNNY   83  62  49 SE5       29.97F HX  84
WAUTOMA        PTSUNNY   83  62  48 S5        29.98S HX  84
WISC RAPIDS    MOSUNNY   81  63  54 VRB5      29.98F HX  82
CAMP DOUGLAS   MOSUNNY   80  66  64 SW8       29.97S HX  82
$$

WIZ011>013-019>022-031-037>040-048>050-042000-
NORTHEAST WISCONSIN

CITY           SKY/WX    TMP DP  RH WIND       PRES   REMARKS
ANTIGO         SUNNY     78  61  56 SE6       29.99S
SHAWANO        SUNNY     81  62  53 NE6       29.97F HX  82
OCONTO         SUNNY     76  65  67 E6        29.97F
STURGEON BAY   SUNNY     72  61  68 E6        30.01S
GREEN BAY      MOSUNNY   80  64  58 N3        29.97F HX  82
MANITOWOC      SUNNY     72  62  71 MISG      29.99S
APPLETON       PTSUNNY   79  61  53 SW7       29.98F HX  80
CLINTONVILLE   CLOUDY    81  61  50 SE3       29.97S HX  81
OSHKOSH        PTSUNNY   80  60  50 S6        29.97F HX  81
$$

WIZ032>034-041-042-053>061-042000-
SOUTHWEST WISCONSIN

CITY           SKY/WX    TMP DP  RH WIND       PRES   REMARKS
LA CROSSE      SUNNY     82  64  54 S9        29.96S HX  83
SPARTA         MOSUNNY   81  59  47 SW3       29.97F HX  81
VIROQUA        SUNNY     80  58  48 S9        30.00S HX  80
BOSCOBEL       SUNNY     82  58  43 CALM      29.98F HX  82
PRAIRIE DU CHI SUNNY     80  56  44 S6        29.98S HX  80
PLATTEVILLE    SUNNY     79  60  51 SW8       30.00F HX  80
$$

WIZ056-057-062-063-064-067-068-042000-
SOUTH CENTRAL WISCONSIN

CITY           SKY/WX    TMP DP  RH WIND       PRES   REMARKS
REEDSBURG      SUNNY     80  59  49 S3        29.98S HX  80
BARABOO/DELLS  SUNNY     80  58  47 SW8       29.99S HX  81
LONE ROCK      SUNNY     81  59  47 W8        29.99S HX  81
MINERAL POINT  SUNNY     79  55  44 SW7       30.01S
MADISON        MOSUNNY   80  57  45 SW5       29.99S HX  80
MIDDLETON      SUNNY     81  57  43 W6        30.00S HX  81
WATERTOWN      SUNNY     78  61  54 S7        29.99S HX  80
MONROE         MOSUNNY   79  59  50 SW7       30.00S HX  80
JANESVILLE     MOSUNNY   81  59  47 SW8       29.99S HX  81
$$

WIZ051-052-058>065-066-070>072-042000-
SOUTHEAST WISCONSIN

CITY           SKY/WX    TMP DP  RH WIND       PRES   REMARKS
MILWAUKEE      MOSUNNY   79  60  52 SE10      29.99S HX  80
WAUKESHA       MOSUNNY   77  57  50 W6        30.00F
MILWAUKEE/TIMM SUNNY     81  55  41 MISG      29.99F HX  80
RACINE         SUNNY     78  58  49 SE8       30.01S
BURLINGTON     SUNNY     77  60  54 SW7       30.00S
KENOSHA        MOSUNNY   79  59  50 CALM      30.00S HX  80
FOND DU LAC    MOSUNNY   80  62  54 S5        29.98S HX  81
SHEBOYGAN      PTSUNNY   80  60  50 CALM      29.98S HX  81
WEST BEND      CLOUDY    79  57  47 CALM      29.99S HX  80
JUNEAU         SUNNY     78  61  56 S5        30.00S
$$

LSZ147-162-042000-
LAKE SUPERIOR

STATION/POSITION TIME  TEMP    WIND        PRES    WAVE
                       AIR SEA DIR/SP/G            HT/PER
                 (UTC) (F)     (DEG/KT/KT) (MB)    (FT/S)
W MID LAKE BUOY  1850   43 39   50/  6/  8 1015.6F   0
DEVILS ISLAND    1900   58      70/ 10/ 12 1015.3S
SAXON HARBOR     1800   63      CALM  /  4 1014.9
$$

LMZ867-665-643>646-042000-
LAKE MICHIGAN

STATION/POSITION TIME  TEMP    WIND        PRES    WAVE
                       AIR SEA DIR/SP/G            HT/PER
                 (UTC) (F)     (DEG/KT/KT) (MB)    (FT/S)
CHAMBERS ISLAND  1800   68     360/  6/  7 1015.6R
S GREEN BAY BUOY 1900   69 70   40/  8/ 12 1016.4
N MID LAKE BUOY  1850   58 45  130/  2/  2 1015.7R   0
NORTHPORT PIER   1800   62     140/  6/  8 1015.6R
SISTER BAY       1829   71      10/  7/  7   N/A
ALGOMA LAKESHORE 1811           70/  5/  5   N/A
KEWAUNEE LAKESHO 1800   62      50/  6/  8 1015.1R
SHEBOYGAN LAKESH 1900   64     130/  9/  9 1015.4F
PORT WASHINGTON  1800   70     150/  3/  6 1015.9
ATWATER BUOY     1900   65 62  160/  8/ 10 1016.9S
MILWAUKEE LAKESH 1800   66     140/ 10/ 12   N/A
KENOSHA   LAKESH 1900   67     170/  7/  9 1015.6S
$$

TC  - TEMPERATURE IN CELSIUS
VSB - VISIBILITY IN STATUTE MILES
WCI - WIND CHILL INDEX
HX  - HEAT INDEX




USA.gov is the U.S. government's official web portal to all federal, state and local government web resources and services.